Погода в Подгорном

Россия / Оренбургская область     51°11′15″N   57°36′30″E
темп.,
°C
ветер,
м/с
пор.,
м/с
влажн.,
%
обл.,
%
осадки,
мм/ч
давл.,
гПа
погр.,
м
23 января, сб
сб2323:00−16з2397100 0.6 102359
02:00−17ссз1298100 0.1 102420
05:00−20ссз129897 0.2 102720
08:00−21всв22890 0.0 102920
11:00−21в36932 0.0 1033178
14:00−18в369181 0.0 1034258
17:00−19в369383 0.0 1035243
20:00−19в3494100 0.0 1036193
24 января, вс
вс2423:00−19в239495 0.0 103569
02:00−14юв2696100 0.8 1033289
05:00−12ю3796100 1.7 1031328
08:00−12юв2696100 0.6 1033232
11:00−9ююв2595100 1.3 1032208
14:00−5ююз3696100 0.8 1032284
17:000зюз61098100 1.9 1030634
20:00−1зюз4998100 0.4 1032427
25 января, пн
пн2523:000з5998100 0.8 1033445
02:00−1з5997100 0.1 1034395
05:00−4зюз3797100 1.2 1034223
08:00−1з3698100 0.1 1036260
11:00−5юз149798 0.4 1035186
14:00−3юз349599 0.1 1035329
17:00−7ююз129594 0.1 103621
20:00−10ю119743 0.0 103721
26 января, вт
вт2623:00−7юв129772 0.1 103770
02:00−4ююз1297100 0.1 1037102
05:00−10ю229599 0.1 103721
08:00−11ююв129162 0.0 103621
11:00−10ююв129179 0.0 103723
14:00−6ююв1391100 0.0 1036170
17:00−7ююв1292100 0.0 103521
20:00−7юв1298100 0.0 103627
27 января, ср
ср2723:00−3ю3596100 0.1 1035310
02:00−3ю2495100 0.0 1035192
05:00−9юв229372 0.0 103421
08:00−11юв229394 0.0 103421
11:00−9вюв228668 0.0 103523
14:00−6вюв229296 0.0 1034131
17:00−7ююв1290100 0.0 103322
20:00−9в2293100 0.0 103321